Location: Cactus School
(34.5700°N, 118.0931°W)
Time: 06:24:28
(UTC-07:00)

Transit 4A - Pass Details

Date: 15 April 2024
Orbit: 871 x 971 km, 66.8° (Epoch: 22 May)

Event Time Altitude Azimuth Distance (km) Brightness Sun altitude
Rises 14:07:35 0° 203° (SSW) 3,564 11.4 60.2°
Reaches altitude 10° 14:10:07 10° 203° (SSW) 2,609 10.9 59.8°
Maximum altitude 14:16:11 86° 116° (ESE) 910 9.1 59.0°
Drops below altitude 10° 14:22:07 10° 27° (NNE) 2,556 10.0 58.1°
Sets 14:24:35 0° 27° (NNE) 3,488 10.6 57.8°
